Wind_Speed
42 42 43 43 43 43 43 43 43 44 45 44 44 43 43 43 43 43 42 42 42 42 41 41 41 41 42 42 42 42 42 43 43 43 42 42 42 41 41 41 41 41 41
43 42 43 44 44 44 44 44 44 44 45 44 45 45 45 44 44 44 44 44 44 43 43 42 42 42 42 43 43 44 44 44 44 43 43 44 43 43 43 42 42 42 42
42 42 43 44 45 44 45 44 44 45 45 44 45 46 47 46 46 46 46 46 46 45 44 44 44 44 44 44 44 44 44 44 44 45 45 44 44 44 44 44 44 44 44
40 41 42 43 43 44 44 44 45 45 46 46 46 46 47 47 47 47 47 48 47 47 46 46 46 46 45 45 45 45 45 46 46 46 46 46 46 46 45 45 45 45 45
38 40 41 41 41 42 43 43 45 46 46 47 47 47 47 47 47 47 48 48 49 48 48 48 47 47 47 46 46 46 46 47 47 47 47 48 48 48 48 47 47 47 47
36 37 39 40 40 41 41 42 43 44 45 46 46 46 47 47 48 48 48 49 49 49 49 49 49 49 48 48 48 48 48 47 47 47 48 49 49 49 50 49 49 49 49
35 36 37 38 39 40 41 41 41 42 43 44 45 46 46 47 48 48 49 49 50 50 50 50 50 50 50 49 49 49 50 49 49 49 50 50 51 51 52 50 51 51 50
34 35 36 38 39 40 41 41 41 41 43 44 45 46 47 47 47 48 48 49 49 50 50 50 50 50 50 51 51 51 52 51 51 51 51 51 51 52 52 52 51 51 50
33 34 35 37 38 39 41 41 41 41 42 43 43 45 46 46 46 46 46 46 47 48 49 49 50 51 51 51 51 52 52 53 53 52 52 52 52 52 52 52 52 53 52
33 34 34 35 36 37 39 40 40 41 41 42 43 44 45 45 45 45 46 46 46 46 47 48 49 50 51 52 53 53 53 53 54 54 53 53 53 53 53 53 53 52 52
33 34 34 35 36 37 38 39 39 40 41 41 42 43 43 44 46 46 46 46 47 47 48 48 49 50 51 51 52 53 54 54 54 54 55 55 54 53 53 53 53 53 53
33 33 33 34 36 37 38 39 39 40 41 41 42 42 43 43 44 46 47 47 47 48 49 50 50 50 51 52 53 54 54 54 55 55 55 55 54 54 54 53 53 53 53
32 32 33 34 35 36 37 38 39 40 41 41 41 42 42 43 43 44 46 46 47 48 49 50 51 51 52 52 53 53 54 54 54 54 55 55 54 55 54 54 53 53 54
33 33 34 34 34 35 36 37 38 39 40 41 41 42 43 43 43 44 45 46 47 48 49 49 50 50 50 51 51 52 52 52 53 54 54 53 53 53 53 54 54 54 54
33 34 34 34 34 34 35 36 36 37 38 39 40 41 42 42 43 44 44 45 46 47 48 48 49 49 50 50 50 51 50 50 50 51 52 52 53 53 53 53 53 54 54
33 33 33 34 34 34 34 35 35 36 36 37 38 39 40 40 41 42 43 44 45 46 47 48 49 49 49 49 49 49 50 50 49 49 50 51 52 52 52 52 52 53 53
32 33 33 33 34 34 34 34 35 36 36 37 37 38 39 40 40 41 42 43 44 45 46 47 47 48 47 47 48 49 49 49 48 47 47 48 48 49 51 51 51 51 51
32 32 33 34 34 34 34 34 35 36 37 37 38 38 39 39 40 40 41 42 43 44 44 44 45 45 45 45 46 46 47 47 48 48 48 47 47 48 49 49 49 49 49
31 32 32 33 34 34 34 35 35 36 36 37 37 37 38 38 39 39 40 40 40 41 42 42 42 43 43 44 44 44 45 46 47 47 47 47 47 48 48 48 48 48 48
31 31 31 32 33 33 33 34 34 34 34 34 35 35 36 36 37 39 39 39 40 40 40 40 41 41 41 41 42 43 43 44 45 45 45 46 46 46 46 46 46 46 46
31 30 31 31 32 32 32 32 33 33 33 33 33 34 35 35 36 37 37 38 38 38 39 39 39 39 39 39 40 40 40 41 42 42 42 42 43 43 43 43 43 44 44
30 30 30 30 30 31 31 31 32 32 32 32 32 33 33 34 35 35 36 36 37 36 36 36 37 37 37 37 38 38 38 38 39 39 39 39 39 40 40 40 40 41 41
28 29 29 29 30 30 31 31 32 32 32 32 32 31 32 33 33 33 34 34 35 35 35 35 35 36 36 36 35 35 36 35 35 35 35 36 36 37 37 37 37 38 39
28 28 29 29 30 30 30 31 32 31 31 30 30 31 31 31 32 32 33 33 33 33 33 33 34 34 34 34 33 33 33 33 33 33 34 34 34 35 35 35 35 35 36
28 28 29 29 29 29 29 29 30 29 29 30 30 30 30 31 31 31 31 32 31 31 31 31 31 31 31 31 31 31 31 31 32 33 33 33 33 33 33 33 33 33 33
27 27 27 27 27 28 28 28 28 28 28 29 29 29 29 29 30 30 30 30 30 29 29 29 29 29 29 29 29 30 30 30 31 31 32 32 32 32 32 32 32 32 32
Wind_Direction
247 248 248 249 250 251 253 255 256 256 256 257 257 258 258 257 257 257 257 257 258 258 258 259 259 259 259 259 259 260 260 260 261 262 261 262 263 263 265 266 266 266 267
249 248 249 250 250 251 253 256 257 257 257 257 257 258 257 257 258 258 257 257 257 257 258 259 259 259 260 260 260 260 260 260 260 261 261 263 263 264 265 265 266 266 267
250 249 250 251 252 252 253 255 256 257 257 258 258 259 258 257 257 257 258 257 257 257 258 259 260 260 260 260 260 260 260 260 261 261 262 262 262 264 264 264 265 266 267
250 249 250 251 253 253 254 255 255 256 257 258 258 259 258 258 257 257 258 258 257 257 258 259 260 260 261 261 260 261 261 261 262 262 263 263 263 263 264 265 266 267 267
252 251 249 251 252 254 255 255 255 256 258 259 258 258 258 257 257 257 257 257 258 258 259 259 260 260 260 261 261 261 262 262 263 264 264 264 264 264 264 264 265 266 267
254 253 251 251 252 253 255 256 257 258 259 259 258 258 258 258 257 257 258 257 258 259 260 260 259 259 260 261 261 262 262 263 263 264 265 265 265 265 264 264 264 265 266
256 255 254 254 254 255 256 258 258 258 258 259 259 259 258 258 258 258 258 259 259 259 259 260 260 260 260 261 262 263 263 263 264 265 266 266 266 266 265 265 265 265 265
257 257 257 257 257 258 258 259 258 258 258 259 259 259 259 259 258 259 259 260 261 261 260 261 261 261 261 262 263 264 264 264 264 265 266 266 265 265 264 265 265 265 266
259 259 259 260 260 260 260 261 260 259 260 261 260 259 258 258 258 259 259 260 261 261 260 261 261 262 262 263 263 264 265 264 264 265 266 265 264 265 265 266 266 267 267
261 261 262 262 262 262 261 261 261 260 260 261 261 260 259 258 258 258 259 259 260 261 261 261 262 262 263 263 264 264 265 264 264 264 264 265 265 265 266 266 268 268 267
263 263 262 263 263 263 263 263 261 260 261 261 261 260 260 260 258 258 258 259 260 261 261 263 264 263 263 263 265 264 264 265 264 264 265 266 265 266 266 267 267 267 268
264 266 266 266 265 264 265 265 263 262 262 263 263 262 261 261 260 259 260 260 261 262 263 264 265 265 265 266 267 267 266 266 266 266 266 266 265 266 266 266 266 267 267
265 266 268 268 267 265 265 266 265 264 264 265 265 264 263 263 261 261 261 262 263 264 265 266 267 267 267 267 267 268 268 267 266 266 265 265 265 265 265 265 265 266 267
266 267 268 269 267 266 266 266 267 266 266 266 266 266 265 265 265 264 263 263 264 265 266 267 268 269 269 268 267 267 267 267 266 266 266 265 264 265 265 265 266 267 268
267 268 269 268 267 267 267 267 268 267 267 267 267 267 267 267 267 267 267 267 266 267 268 268 269 270 270 270 269 267 267 268 267 266 265 265 265 264 265 265 266 267 268
268 268 269 268 268 268 268 268 268 268 268 269 269 269 268 269 269 269 270 270 270 271 271 271 271 271 272 270 268 267 267 268 269 268 266 265 264 265 265 266 266 267 268
268 268 269 269 268 268 268 268 269 269 269 269 269 269 269 269 270 270 270 271 272 272 272 273 273 273 273 271 269 268 268 267 267 268 267 266 264 265 266 266 266 267 268
269 269 269 269 269 269 269 269 270 270 270 270 270 269 269 269 270 272 272 272 273 274 274 274 273 273 273 272 270 269 268 267 267 267 267 266 265 266 266 266 266 267 267
270 271 270 270 269 269 269 270 271 272 272 271 270 270 270 270 271 272 273 273 274 275 275 274 273 274 273 273 271 269 269 269 269 269 269 268 267 267 267 267 268 268 268
271 272 271 270 270 270 270 271 272 273 273 272 271 272 272 272 273 274 275 275 275 275 276 275 274 274 274 273 271 270 270 271 270 270 269 269 269 268 268 268 268 268 269
272 272 272 271 271 271 272 272 273 274 273 273 272 273 274 275 276 277 277 277 277 276 276 276 276 276 275 274 273 272 272 272 272 271 270 269 268 267 267 268 269 269 270
272 272 272 272 272 272 272 273 273 274 273 274 275 275 275 277 278 278 279 279 279 278 278 277 276 276 276 276 274 273 272 272 271 270 270 269 268 268 267 268 269 270 270
272 272 271 272 273 273 273 273 274 273 274 274 276 275 276 278 279 280 281 281 280 279 278 278 277 277 276 276 274 273 272 271 270 269 269 269 268 269 268 268 268 269 270
273 273 272 273 273 274 274 273 273 273 273 274 275 276 278 279 280 280 281 282 282 280 279 278 277 277 277 276 275 274 273 271 270 269 269 269 269 269 269 269 269 269 270
274 274 273 273 273 273 273 273 273 272 273 274 274 276 278 279 280 281 282 282 282 281 280 280 279 279 278 277 275 274 273 272 271 270 270 270 270 269 268 268 268 269 269
274 274 274 273 273 273 274 274 274 272 273 275 276 277 278 279 280 281 282 283 282 282 282 281 280 280 279 279 277 275 274 274 274 272 272 271 271 270 270 269 268 268 269
Height
5735 5737 5739 5740 5742 5744 5746 5747 5749 5750 5751 5752 5754 5755 5755 5756 5757 5758 5759 5760 5761 5762 5763 5764 5765 5766 5767 5768 5769 5770 5771 5771 5772 5772 5773 5774 5774 5774 5775 5775 5775 5775 5775
5724 5726 5728 5730 5731 5733 5735 5736 5738 5739 5740 5741 5742 5743 5744 5746 5747 5748 5749 5750 5751 5752 5753 5754 5755 5756 5757 5758 5759 5759 5760 5761 5762 5762 5763 5764 5765 5765 5765 5765 5765 5765 5765
5714 5716 5718 5719 5721 5723 5724 5725 5727 5728 5729 5730 5731 5732 5733 5734 5735 5737 5738 5739 5740 5741 5743 5744 5745 5746 5747 5748 5748 5749 5750 5751 5751 5752 5752 5753 5754 5755 5755 5755 5755 5755 5755
5703 5705 5707 5709 5710 5712 5713 5714 5716 5717 5718 5718 5719 5720 5721 5723 5724 5725 5726 5727 5729 5730 5732 5733 5734 5735 5736 5737 5737 5738 5739 5740 5740 5741 5741 5742 5742 5744 5745 5745 5745 5744 5744
5693 5695 5696 5698 5699 5701 5702 5703 5704 5705 5706 5706 5707 5708 5710 5711 5712 5713 5714 5716 5717 5719 5720 5721 5722 5723 5724 5725 5726 5727 5727 5728 5729 5729 5730 5730 5731 5731 5733 5734 5734 5734 5733
5682 5684 5686 5687 5688 5690 5691 5692 5693 5693 5694 5695 5695 5696 5698 5699 5700 5701 5702 5704 5705 5707 5708 5709 5710 5711 5712 5713 5714 5715 5715 5716 5717 5717 5718 5718 5719 5719 5720 5721 5722 5722 5722
5673 5674 5676 5677 5678 5679 5680 5681 5682 5682 5682 5683 5683 5684 5685 5686 5688 5689 5690 5692 5693 5694 5696 5697 5698 5699 5700 5701 5702 5703 5703 5704 5704 5705 5705 5705 5706 5706 5707 5707 5708 5709 5710
5664 5665 5666 5667 5668 5669 5669 5670 5670 5670 5671 5671 5671 5672 5673 5675 5676 5677 5678 5679 5680 5682 5683 5684 5685 5686 5687 5688 5689 5690 5690 5691 5691 5692 5692 5692 5692 5693 5693 5694 5695 5696 5697
5655 5656 5656 5657 5658 5658 5658 5658 5659 5659 5659 5660 5660 5660 5662 5663 5664 5665 5666 5667 5668 5669 5670 5671 5672 5673 5674 5675 5676 5677 5677 5678 5678 5679 5679 5679 5679 5679 5680 5680 5681 5681 5682
5646 5646 5647 5647 5647 5647 5647 5647 5647 5648 5648 5648 5649 5649 5650 5651 5652 5652 5654 5655 5656 5657 5658 5658 5659 5660 5661 5662 5662 5663 5663 5664 5664 5665 5665 5665 5665 5665 5666 5666 5666 5667 5668
5636 5636 5637 5637 5637 5636 5637 5637 5636 5637 5637 5637 5637 5638 5639 5639 5640 5640 5641 5643 5644 5645 5646 5646 5647 5647 5648 5648 5648 5648 5649 5649 5650 5650 5651 5651 5651 5651 5652 5652 5653 5653 5653
5626 5626 5626 5626 5626 5626 5626 5626 5626 5626 5626 5626 5626 5626 5627 5627 5628 5629 5630 5630 5632 5633 5633 5634 5634 5634 5634 5634 5634 5634 5635 5635 5635 5636 5636 5637 5637 5637 5638 5638 5639 5639 5639
5617 5617 5616 5616 5616 5616 5615 5615 5615 5615 5615 5615 5615 5615 5616 5616 5617 5617 5618 5619 5619 5620 5620 5621 5621 5621 5620 5620 5620 5620 5620 5620 5621 5621 5622 5622 5622 5623 5623 5624 5624 5625 5625
5607 5607 5607 5606 5606 5605 5605 5605 5605 5605 5605 5604 5604 5604 5604 5605 5605 5606 5606 5607 5607 5607 5608 5608 5608 5607 5607 5606 5606 5605 5605 5605 5606 5606 5606 5607 5608 5608 5609 5609 5610 5610 5610
5597 5597 5597 5597 5596 5596 5596 5595 5595 5594 5594 5594 5593 5593 5593 5593 5594 5594 5594 5594 5594 5594 5594 5594 5594 5593 5592 5592 5591 5591 5591 5591 5591 5591 5592 5592 5593 5593 5594 5594 5595 5595 5596
5588 5587 5587 5587 5586 5586 5586 5585 5585 5584 5584 5583 5583 5582 5582 5582 5583 5583 5583 5582 5582 5582 5581 5580 5580 5579 5578 5578 5577 5577 5577 5577 5577 5577 5577 5577 5578 5578 5579 5579 5579 5580 5581
5578 5578 5577 5577 5576 5576 5576 5575 5575 5574 5573 5573 5572 5572 5571 5571 5571 5571 5571 5571 5570 5570 5569 5567 5566 5565 5565 5564 5564 5563 5563 5563 5564 5563 5563 5563 5563 5564 5564 5564 5565 5566 5566
5568 5568 5567 5567 5566 5566 5566 5565 5564 5563 5563 5562 5561 5561 5561 5560 5560 5560 5559 5558 5558 5557 5556 5555 5553 5552 5552 5551 5550 5550 5550 5550 5550 5550 5549 5549 5549 5549 5549 5550 5551 5551 5552
5559 5558 5558 5557 5556 5556 5556 5555 5554 5553 5552 5551 5551 5550 5550 5549 5549 5548 5547 5547 5546 5545 5544 5543 5541 5540 5540 5539 5538 5537 5537 5537 5537 5536 5535 5535 5535 5536 5536 5536 5537 5538 5538
5549 5549 5548 5547 5547 5546 5546 5545 5544 5543 5542 5541 5540 5540 5539 5539 5538 5537 5536 5535 5534 5533 5532 5531 5530 5529 5528 5527 5526 5525 5525 5525 5524 5524 5523 5523 5522 5522 5522 5522 5523 5524 5525
5540 5539 5538 5538 5537 5536 5536 5535 5534 5533 5532 5531 5531 5530 5529 5528 5527 5526 5525 5524 5523 5522 5521 5520 5519 5517 5516 5515 5514 5513 5512 5512 5511 5511 5510 5510 5510 5510 5510 5510 5510 5511 5511
5530 5530 5529 5528 5528 5527 5526 5526 5525 5524 5523 5523 5522 5521 5520 5519 5517 5516 5515 5514 5512 5511 5510 5509 5507 5506 5505 5504 5502 5501 5500 5500 5499 5499 5498 5498 5498 5497 5497 5498 5498 5498 5498
5521 5520 5520 5519 5518 5518 5517 5516 5515 5515 5514 5513 5512 5511 5510 5509 5508 5507 5505 5504 5502 5501 5500 5498 5497 5495 5494 5493 5491 5490 5489 5488 5488 5488 5487 5487 5486 5486 5486 5486 5486 5486 5486
5512 5511 5511 5510 5509 5508 5507 5507 5506 5505 5505 5504 5503 5502 5501 5500 5499 5497 5496 5494 5493 5491 5490 5488 5487 5485 5484 5482 5481 5480 5479 5478 5477 5477 5477 5476 5476 5475 5475 5475 5475 5475 5475
5502 5502 5501 5501 5500 5499 5498 5497 5497 5496 5496 5495 5494 5493 5492 5491 5490 5488 5487 5485 5483 5481 5480 5478 5477 5475 5474 5472 5470 5469 5469 5468 5467 5467 5466 5466 5465 5465 5465 5465 5465 5465 5465
5493 5493 5492 5492 5491 5490 5489 5488 5488 5487 5486 5486 5485 5484 5483 5482 5481 5479 5478 5476 5474 5473 5471 5469 5467 5466 5464 5463 5461 5460 5459 5458 5457 5457 5456 5456 5455 5455 5455 5455 5455 5455 5455